Content
SEND FEEDBACK

Daily
Averages
Monthly
Summary
United States of America

SANTO, TEXAS


Home > North America > United States > Texas
Elevation: 820 feet     Latitude: 32 40N     Longitude: 098 07W

WEATHER
 
SELECT A DAY
Number of Records: 174,467;   Date Range: 1/1/95 - 7/26/14
 
SHARE

PRINT THIS DATA

[ ← Previous Day ]
WEATHER ALMANAC - JANUARY 31, 2013
[ Next Day → ]
[ °C ]   °F
Weather ElementAverageHighLow
Temperature48.1 °F66.9 °F (2:53 pm)28 °F (5:53 am)
Dewpoint22.8 °F28.9 °F (10:53 pm)19 °F (7:53 am)
Humidity43.4 %78 % (5:53 am)17 % (2:53 pm)
Barometer30.15 in30.29 in (11:53 pm)30.06 in (3:53 pm)
Wind Speed9.1 mph20.7 mph (2:53 pm)
Wind Gust27.6 mph (1:53 pm)
Weather ElementAverage
Visibility10 mi
Wind DirectionSSE (149.1 °)

Weather ElementTotal
Precipitation---
Heating Degree Days17.6 (Base 65)
Averaged from 23 records on January 31, 2013
WEATHER CONDITIONS BREAKOUT
WIND DIRECTION BREAKOUT
WEATHER BY HOUR - JANUARY 31, 2013
[ °C ]   °F
Local TimeTemperatureDewpointHumidityBarometerVisibilityWind DirectionWind SpeedGust SpeedPrecipitationEventsConditions
1:53 AM30.9 °F23.0 °F72 %30.13 in10.0 miSSE (150°)5.8 mphClear
2:53 AM30.0 °F23.0 °F75 %30.12 in10.0 miSSE (160°)6.9 mphClear
3:53 AM30.0 °F21.9 °F72 %30.13 in10.0 miSE (140°)5.8 mphClear
4:53 AM30.0 °F21.9 °F72 %30.13 in10.0 miCalmClear
5:53 AM28.0 °F21.9 °F78 %30.13 in10.0 miCalmClear
6:53 AM30.0 °F21.0 °F69 %30.13 in10.0 miCalmClear
7:53 AM32.0 °F19.0 °F59 %30.14 in10.0 miSSE (150°)4.6 mphClear
8:53 AM37.9 °F25.0 °F60 %30.16 in10.0 miSSE (150°)4.6 mphClear
9:53 AM44.1 °F25.0 °F47 %30.17 in10.0 miSouth (180°)5.8 mphClear
10:53 AM55.9 °F21.9 °F27 %30.16 in10.0 miSSW (210°)12.7 mphClear
11:53 AM60.1 °F21.0 °F22 %30.15 in10.0 miWSW (250°)10.4 mphClear
12:53 PM64.0 °F21.0 °F19 %30.11 in10.0 miSW (220°)17.3 mph21.9 mphClear
1:53 PM66.0 °F21.9 °F19 %30.08 in10.0 miWSW (250°)19.6 mph27.6 mphClear
2:53 PM66.9 °F21.0 °F17 %30.07 in10.0 miWSW (240°)20.7 mph25.3 mphClear
3:53 PM66.9 °F21.0 °F17 %30.06 in10.0 miWSW (240°)13.8 mph20.7 mphClear
4:53 PM66.9 °F19.9 °F17 %30.10 in10.0 miWest (280°)15.0 mphClear
5:53 PM62.1 °F21.9 °F21 %30.12 in10.0 miNW (310°)8.1 mphClear
6:53 PM57.0 °F21.9 °F26 %30.14 in10.0 miNorth (350°)4.6 mphClear
7:53 PM55.0 °F23.0 °F29 %30.19 in10.0 miNorth (10°)4.6 mphClear
8:53 PM52.0 °F25.0 °F35 %30.21 in10.0 miNNE (30°)10.4 mphClear
9:53 PM51.1 °F27.0 °F39 %30.24 in10.0 miNNE (30°)12.7 mph19.6 mphClear
10:53 PM46.9 °F28.9 °F50 %30.25 in10.0 miNE (40°)13.8 mph23.0 mphClear
11:53 PM43.0 °F28.0 °F56 %30.29 in10.0 miNE (40°)11.5 mph21.9 mphClear
Hourly data recorded from KMWL, located miles away from Santo, Texas







STORIES FROM OUR PARTNERS